Home > Weather > Odense > Past weeks

Flag for Denmark Weather for the Past 2 Weeks in Odense, Denmark

Now
43 °F

Passing clouds.


Feels Like: 36 °F
Forecast: 40 / 44 °F
Wind: 14 mph from South

Location: Soenderborg Lufthavn

Current Time: Feb 8, 2016 at 1:57:10 AM

Latest Report: Feb 8, 2016 at 1:20 AM


Visibility: N/A

Pressure: 29.33 "Hg

Humidity: 76%

Dew point: 36 °F

Location of OdenseLocation

Historic Weather in Odense — Graph

°F

Odense Temperature Yesterday

Maximum temperature yesterday: 50 °F (at 11:20 AM)
Minimum temperature yesterday: 41 °F (at 12:50 AM)
Average temperature yesterday: 46 °F

High & Low Weather Summary for the Past Weeks

 TemperatureHumidityPressure
High52 °F (Jan 27, 6:21 PM)100% (Jan 23, 11:20 PM)30.39 "Hg (Jan 23, 11:20 PM)
Low36 °F (Jan 24, 2:20 AM)66% (Jan 28, 1:50 PM)29.36 "Hg (Feb 7, 10:50 AM)
Average44 °F88%29.76 "Hg
* Reported Jan 23 11:20 PM — Feb 7 11:50 PM, Odense, Weather by CustomWeather, © 2016

Note: Actual official high and low records may vary slightly from our data, if they occured in-between our weather recording intervals... More about our weather records

Advertising

Odense Weather History for the Previous 24 Hours

 ConditionsComfort  
Time TempWeatherWind HumidityBarometerVisibility
11:50 PM
Sun, Feb 7
45 °FPassing clouds.16 mph71%29.39 "HgN/A
11:20 PM45 °FPassing clouds.16 mph76%29.39 "HgN/A
10:50 PM46 °FPassing clouds.16 mph71%29.39 "HgN/A
10:20 PM46 °FPassing clouds.16 mph71%29.39 "HgN/A
9:50 PM46 °FPassing clouds.17 mph71%29.39 "HgN/A
9:20 PM46 °FOvercast.17 mph71%29.39 "HgN/A
8:50 PM46 °FPassing clouds.16 mph71%29.39 "HgN/A
8:20 PM46 °FPassing clouds.14 mph71%29.42 "HgN/A
7:50 PM45 °FClear.14 mph76%29.42 "Hg10 mi
7:20 PM45 °FPassing clouds.13 mph81%29.42 "HgN/A
6:50 PM45 °FPassing clouds.15 mph81%29.42 "HgN/A
6:21 PM45 °FSprinkles. Passing clouds.15 mph81%29.42 "HgN/A
5:51 PM46 °FPartly cloudy.13 mph76%29.42 "HgN/A
5:20 PM48 °FPassing clouds.13 mph71%29.42 "HgN/A
4:20 PM48 °FBroken clouds.14 mph76%29.39 "HgN/A
3:50 PM48 °FPartly sunny.12 mph76%29.39 "HgN/A
3:20 PM48 °FPartly sunny.13 mph76%29.39 "HgN/A
2:51 PM48 °FPartly sunny.12 mph76%29.39 "HgN/A
2:20 PM48 °FScattered clouds.9 mph82%29.36 "Hg5 mi
1:20 PM50 °FPartly sunny.16 mph76%29.36 "Hg5 mi
12:50 PM50 °FPartly sunny.10 mph71%29.36 "Hg5 mi
12:20 PM50 °FPartly sunny.10 mph71%29.36 "Hg5 mi
11:50 AM50 °FPartly sunny.10 mph71%29.36 "Hg5 mi
11:20 AM50 °FClear.10 mph71%29.36 "Hg5 mi
10:50 AM48 °FClear.10 mph76%29.36 "Hg5 mi
9:50 AM46 °FClear.12 mph76%29.39 "Hg5 mi
9:20 AM46 °FClear.12 mph76%29.39 "Hg5 mi
8:50 AM46 °FCool.10 mph76%29.39 "HgN/A
8:20 AM46 °FCool.10 mph76%29.39 "HgN/A
7:50 AM45 °FPassing clouds.10 mph81%29.39 "HgN/A
7:20 AM45 °FPassing clouds.10 mph81%29.39 "HgN/A
6:50 AM45 °FQuite cool.9 mph81%29.39 "HgN/A
6:20 AM45 °FQuite cool.10 mph81%29.39 "HgN/A
5:50 AM45 °FQuite cool.12 mph81%29.42 "HgN/A
5:20 AM45 °FQuite cool.12 mph81%29.42 "HgN/A
4:20 AM46 °FCool.12 mph76%29.45 "HgN/A
3:50 AM46 °FCool.10 mph76%29.45 "HgN/A
3:20 AM45 °FQuite cool.8 mph81%29.47 "HgN/A
2:20 AM43 °FQuite cool.7 mph87%29.47 "HgN/A
1:50 AM41 °FQuite cool.10 mph93%29.50 "HgN/A
1:20 AM43 °FQuite cool.8 mph93%29.50 "HgN/A
Weather by CustomWeather, © 2016

See weather overviewHow to use our weather pages